EW0729 Weather Reports


time (UTC)temp
C
wind
direction
speed
KPH
gust
KPH
rain 1hr
cm
rain 24hr
cm
rain mn
cm
humidity
%
barometer
mb
20260503004735 16 263 0.0 3.2 0.00 0.00 0.00 37 1012.3
20260503004604 16 265 0.0 4.8 0.00 0.00 0.00 37 1012.4
20260503003105 16 286 1.6 4.8 0.00 0.00 0.00 36 1012.6
20260503002521 16 294 1.6 6.4 0.00 0.00 0.00 36 1012.5
20260503001503 16 284 1.6 8.0 0.00 0.00 0.00 36 1012.7
20260503000330 16 287 1.6 4.8 0.00 0.00 0.00 36 1012.6
20260502235257 16 291 1.6 4.8 0.00 0.00 0.00 36 1012.7
20260502234510 16 280 1.6 6.4 0.00 0.00 0.00 36 1012.9
20260502234240 16 282 1.6 4.8 0.00 0.00 0.00 36 1012.8
20260502233216 16 283 1.6 4.8 0.00 0.00 0.00 35 1012.9
20260502233002 16 282 0.0 6.4 0.00 0.00 0.00 35 1013.1
20260502232219 16 269 1.6 4.8 0.00 0.00 0.00 35 1013.1
20260502231607 16 289 1.6 4.8 0.00 0.00 0.00 35 1013.2
20260502231208 16 302 1.6 4.8 0.00 0.00 0.00 35 1013.2
20260502230151 16 303 3.2 11.3 0.00 0.00 0.00 35 1013.4
20260502230002 16 284 1.6 11.3 0.00 0.00 0.00 35 1013.4
20260502225157 17 300 4.8 11.3 0.00 0.00 0.00 35 1013.4
20260502224503 16 280 8.0 14.5 0.00 0.00 0.00 35 1013.5
20260502223103 16 261 4.8 12.9 0.00 0.00 0.00 35 1013.5
20260502223040 17 290 4.8 12.9 0.00 0.00 0.00 35 1013.5
20260502222047 17 286 1.6 12.9 0.00 0.00 0.00 35 1013.7
20260502221606 17 281 1.6 14.5 0.00 0.00 0.00 35 1013.6
20260502221058 17 263 1.6 4.8 0.00 0.00 0.00 35 1013.7
20260502220147 17 263 3.2 14.5 0.00 0.00 0.00 35 1013.9
20260502220046 17 229 3.2 11.3 0.00 0.00 0.00 35 1013.8
20260502215058 17 300 3.2 12.9 0.00 0.00 0.00 35 1014.1
20260502214055 17 283 3.2 12.9 0.00 0.00 0.00 35 1014.2
20260502213108 17 261 3.2 14.5 0.00 0.00 0.00 36 1014.3
20260502213029 17 227 1.6 12.9 0.00 0.00 0.00 36 1014.2
20260502212050 17 298 1.6 11.3 0.00 0.00 0.00 36 1014.4
20260502211503 16 229 3.2 12.9 0.00 0.00 0.00 36 1014.5
20260502211037 16 261 3.2 12.9 0.00 0.00 0.00 36 1014.5
20260502210045 16 227 3.2 12.9 0.00 0.00 0.00 36 1014.7
20260502210002 15 284 6.4 14.5 0.00 0.00 0.00 36 1014.7
20260502205027 16 281 3.2 12.9 0.00 0.00 0.00 36 1014.8
20260502204612 16 277 1.6 9.7 0.00 0.00 0.00 36 1015.0
20260502203954 16 289 4.8 12.9 0.00 0.00 0.00 36 1015.0
20260502203121 16 278 4.8 12.9 0.00 0.00 0.00 36 1015.2
20260502201824 16 294 1.6 14.5 0.00 0.00 0.00 37 1015.5
20260502201505 16 304 3.2 9.7 0.00 0.00 0.00 37 1015.5
20260502200832 16 279 4.8 14.5 0.00 0.00 0.00 37 1015.6
20260502200104 15 310 4.8 14.5 0.00 0.00 0.00 37 1015.6
20260502195816 16 277 3.2 12.9 0.00 0.00 0.00 37 1015.6
20260502194749 15 285 3.2 11.3 0.00 0.00 0.00 37 1015.9
20260502194502 15 291 3.2 12.9 0.00 0.00 0.00 37 1016.0
20260502193731 15 288 3.2 11.3 0.00 0.00 0.00 38 1016.1
20260502193003 15 298 3.2 12.9 0.00 0.00 0.00 38 1016.2
20260502191603 15 267 3.2 11.3 0.00 0.00 0.00 39 1016.4
20260502190620 15 296 3.2 9.7 0.00 0.00 0.00 39 1016.6
20260502190002 15 290 3.2 11.3 0.00 0.00 0.00 39 1016.8
20260502185625 15 296 3.2 11.3 0.00 0.00 0.00 39 1016.9
20260502184614 15 306 3.2 14.5 0.00 0.00 0.00 40 1016.9
20260502184602 14 306 4.8 12.9 0.00 0.00 0.00 40 1017.0
20260502183620 14 270 3.2 14.5 0.00 0.00 0.00 40 1017.1
20260502183004 13 311 4.8 14.5 0.00 0.00 0.00 40 1017.4
20260502182606 14 288 3.2 12.9 0.00 0.00 0.00 40 1017.4
20260502181605 13 272 3.2 16.1 0.00 0.00 0.00 41 1017.5
20260502181601 13 271 4.8 12.9 0.00 0.00 0.00 41 1017.5
20260502180536 13 288 3.2 16.1 0.00 0.00 0.00 42 1017.7
20260502180115 13 232 3.2 16.1 0.00 0.00 0.00 42 1017.7
20260502163450 12 284 3.2 14.5 0.00 0.00 0.00 45 1018.7
20260502163112 12 279 3.2 14.5 0.00 0.00 0.00 45 1018.9
20260502162448 12 277 3.2 14.5 0.00 0.00 0.00 46 1018.9
20260502161504 12 290 3.2 12.9 0.00 0.00 0.00 46 1019.0
20260502161423 12 295 3.2 11.3 0.00 0.00 0.00 46 1018.9
20260502160407 12 296 3.2 14.5 0.00 0.00 0.00 47 1019.0
20260502160107 12 291 1.6 16.1 0.00 0.00 0.00 47 1019.0
20260502151506 11 282 1.6 6.4 0.00 0.00 0.00 53 1019.3
20260502151313 11 273 1.6 11.3 0.00 0.00 0.00 53 1019.3
20260502150308 11 329 3.2 11.3 0.00 0.00 0.00 54 1019.3
20260502150106 11 278 4.8 12.9 0.00 0.00 0.00 55 1019.4
20260502130110 5 227 1.6 6.4 0.00 0.00 0.00 68 1019.9
20260502122443 3 257 0.0 1.6 0.00 0.00 0.00 69 1019.8
20260502121503 2 257 0.0 3.2 0.00 0.00 0.00 69 1019.7
20260502120337 2 257 0.0 3.2 0.00 0.00 0.00 69 1019.7
20260502115355 2 257 0.0 3.2 0.00 0.00 0.00 69 1019.7
20260502114605 2 257 1.6 4.8 0.00 0.00 0.00 69 1019.7
20260502114359 2 257 0.0 3.2 0.00 0.00 0.00 69 1019.6
20260502113411 2 257 0.0 1.6 0.00 0.00 0.00 68 1019.6
20260502113103 2 257 1.6 4.8 0.00 0.00 0.00 68 1019.6
20260502111502 1 257 1.6 4.8 0.00 0.00 0.00 68 1019.6
20260502111302 2 257 0.0 3.2 0.00 0.00 0.00 68 1019.5
20260502110106 1 257 1.6 4.8 0.00 0.00 0.00 67 1019.5
20260502105141 2 256 1.6 3.2 0.00 0.00 0.00 67 1019.5
20260502104502 2 256 1.6 4.8 0.00 0.00 0.00 67 1019.5
20260502104156 2 254 1.6 3.2 0.00 0.00 0.00 67 1019.5
20260502103154 2 253 1.6 3.2 0.00 0.00 0.00 67 1019.5
20260502103003 2 253 1.6 4.8 0.00 0.00 0.00 67 1019.5
20260502102147 2 253 0.0 1.6 0.00 0.00 0.00 66 1019.5
20260502101502 2 253 1.6 3.2 0.00 0.00 0.00 66 1019.5
20260502100105 2 253 1.6 4.8 0.00 0.00 0.00 65 1019.5
20260502091502 2 223 0.0 1.6 0.00 0.00 0.00 64 1019.6
20260502090952 2 223 0.0 0.0 0.00 0.00 0.00 64 1019.5
20260502071503 2 23 0.0 3.2 0.00 0.00 0.00 62 1019.7
20260502070601 3 23 0.0 0.0 0.00 0.00 0.00 62 1019.6
20260502065625 3 23 0.0 1.6 0.00 0.00 0.00 61 1019.7
20260502064616 3 22 0.0 0.0 0.00 0.00 0.00 61 1019.8
20260502064502 3 22 0.0 1.6 0.00 0.00 0.00 61 1019.9
20260502063002 3 22 0.0 0.0 0.00 0.00 0.00 60 1019.9
20260502062435 3 22 0.0 0.0 0.00 0.00 0.00 60 1019.9
20260502061502 3 22 0.0 3.2 0.00 0.00 0.00 59 1019.9
20260502060512 3 22 0.0 0.0 0.00 0.00 0.00 58 1019.9
20260502060104 3 22 0.0 0.0 0.00 0.00 0.00 58 1019.9
20260502055448 3 22 0.0 0.0 0.00 0.00 0.00 57 1019.8
20260502054510 4 22 0.0 0.0 0.00 0.00 0.00 56 1019.8
20260502054502 3 22 0.0 1.6 0.00 0.00 0.00 56 1019.9
20260502053438 4 22 0.0 0.0 0.00 0.00 0.00 55 1019.8
20260502052431 4 22 0.0 0.0 0.00 0.00 0.00 54 1019.7
20260502051505 4 22 0.0 0.0 0.00 0.00 0.00 53 1019.7
20260502051455 4 22 0.0 0.0 0.00 0.00 0.00 53 1019.7
20260502050457 5 22 0.0 0.0 0.00 0.00 0.00 52 1019.7
20260502044504 5 22 0.0 0.0 0.00 0.00 0.00 50 1019.6
20260502044323 5 22 0.0 0.0 0.00 0.00 0.00 50 1019.7
20260502043108 5 22 0.0 0.0 0.00 0.00 0.00 49 1019.8
20260502041503 6 22 0.0 0.0 0.00 0.00 0.00 47 1019.6
20260502034503 6 22 0.0 0.0 0.00 0.00 0.00 45 1019.6
20260502033553 7 22 0.0 0.0 0.00 0.00 0.00 44 1019.7
20260502033003 6 22 0.0 0.0 0.00 0.00 0.00 44 1019.7
20260502032530 7 22 0.0 0.0 0.00 0.00 0.00 43 1019.6
20260502031513 7 22 0.0 0.0 0.00 0.00 0.00 43 1019.7
20260502031503 7 22 0.0 0.0 0.00 0.00 0.00 43 1019.7
20260502030108 7 22 0.0 0.0 0.00 0.00 0.00 43 1019.6
20260502025351 7 22 0.0 0.0 0.00 0.00 0.00 43 1019.6
20260502024508 7 22 0.0 0.0 0.00 0.00 0.00 43 1019.6
20260502024353 7 22 0.0 0.0 0.00 0.00 0.00 43 1019.6
20260502023411 7 22 0.0 0.0 0.00 0.00 0.00 42 1019.5
20260502023003 7 22 0.0 0.0 0.00 0.00 0.00 42 1019.6
20260502022403 8 22 0.0 0.0 0.00 0.00 0.00 42 1019.5
20260502021616 8 22 0.0 1.6 0.00 0.00 0.00 42 1019.5
20260502020310 8 22 0.0 0.0 0.00 0.00 0.00 41 1019.4
20260502020003 8 22 0.0 3.2 0.00 0.00 0.00 40 1019.4
20260502015251 8 22 0.0 0.0 0.00 0.00 0.00 40 1019.3
20260502014604 8 22 0.0 3.2 0.00 0.00 0.00 39 1019.2
20260502014258 8 22 0.0 1.6 0.00 0.00 0.00 39 1019.2
20260502013304 9 22 0.0 3.2 0.00 0.00 0.00 39 1019.2
20260502013105 8 22 1.6 4.8 0.00 0.00 0.00 39 1019.2
20260502012244 9 17 1.6 6.4 0.00 0.00 0.00 38 1019.1
20260502011503 9 18 3.2 8.0 0.00 0.00 0.00 38 1019.1
20260502010133 9 24 1.6 12.9 0.00 0.00 0.00 37 1018.9